Weather reports worldwide

Advertisment
Wick Airport (AWS), United Kingdom (3075): temperature & dewpoint: 15.05.2019 12:00:00 - 21.05.2019 12:00:00 (BST)Wick Airport (AWS), United Kingdom (3075): temperature -20cm: 15.05.2019 12:00:00 - 21.05.2019 12:00:00 (BST)Wick Airport (AWS), United Kingdom (3075): wind speed & gusts: 15.05.2019 12:00:00 - 21.05.2019 12:00:00 (BST)Wick Airport (AWS), United Kingdom (3075): wind direction: 15.05.2019 12:00:00 - 21.05.2019 12:00:00 (BST)Wick Airport (AWS), United Kingdom (3075): reduced air pressure: 15.05.2019 12:00:00 - 21.05.2019 12:00:00 (BST)Wick Airport (AWS), United Kingdom (3075): visibility: 15.05.2019 12:00:00 - 21.05.2019 12:00:00 (BST)Wick Airport (AWS), United Kingdom (3075): precipitation: 15.05.2019 12:00:00 - 21.05.2019 12:00:00 (BST)
Date & Time tt [°C] td [°C] tt -20cm [°C] ff [km/h] ff [kn] fx [km/h] fx [kn] dd ppp [hPa] vv [km] rr [mm]
21.05.2019 12:00:00 11,5 10,0 - 31 17 - - W 1016,8 45 0,2
21.05.2019 11:00:00 10,1 9,3 - 26 14 - - W 1016,9 20 0,0
21.05.2019 10:00:00 9,9 9,3 11,7 22 12 - - W 1016,9 23 0,0
21.05.2019 09:00:00 9,3 8,9 - 26 14 - - W 1016,6 20 0,2
21.05.2019 08:00:00 9,3 8,9 - 26 14 - - W 1016,3 10 0,4
21.05.2019 07:00:00 8,9 8,7 - 16 9 - - W 1016,2 12 0,6
21.05.2019 06:00:00 8,6 8,3 - 16 9 - - W 1016,2 11 0,8
21.05.2019 05:00:00 8,6 8,3 - 15 8 - - W 1016,1 12 0,0
21.05.2019 04:00:00 8,7 8,3 - 18 10 - - W 1016,0 35 0,0
21.05.2019 03:00:00 8,6 8,1 - 15 8 - - W 1015,9 29 0,0
21.05.2019 02:00:00 8,3 7,4 - 13 7 - - WNW 1015,7 45 0,0
21.05.2019 01:00:00 9,0 8,2 - 11 6 - - WNW 1015,9 45 0,0
21.05.2019 00:00:00 9,3 8,6 - 18 10 - - WNW 1015,8 40 0,0
20.05.2019 23:00:00 9,7 9,1 - 18 10 - - WNW 1015,4 40 0,0
20.05.2019 22:00:00 10,1 9,7 - 16 9 - - NW 1015,3 21 0,0
20.05.2019 21:00:00 10,4 9,8 - 18 10 - - WNW 1015,1 30 0,0
20.05.2019 20:00:00 10,8 10,0 - 16 9 - - NW 1014,7 15 0,0
20.05.2019 19:00:00 11,5 10,7 - 16 9 - - WNW 1014,2 11 0,0
20.05.2019 18:00:00 11,4 10,8 - 11 6 - - NW 1014,2 9 0,2
20.05.2019 17:00:00 11,1 10,4 - 4 2 - - NW 1013,9 5 1,4
20.05.2019 16:00:00 10,9 9,5 - 5 3 - - ENE 1013,7 10 0,0
20.05.2019 15:00:00 12,2 10,8 - 8 4 - - E 1013,1 9 0,0
20.05.2019 14:00:00 13,1 10,9 - 11 6 - - N 1012,8 20 0,0
20.05.2019 13:00:00 12,2 12,2 - 5 3 - - N 1012,7 12 0,0
20.05.2019 12:00:00 11,3 11,3 - 8 4 - - NNW 1012,5 6 0,0
20.05.2019 11:00:00 10,1 10,1 - 5 3 - - NNW 1012,7 0,8 0,0
20.05.2019 10:00:00 9,7 9,7 11,7 8 4 - - N 1012,5 0,7 0,0
20.05.2019 09:00:00 9,7 9,7 - 5 3 - - NNE 1012,3 1,9 0,0
20.05.2019 08:00:00 9,1 9,0 - 4 2 - - ENE 1011,9 0,8 0,0
20.05.2019 07:00:00 8,9 8,9 - 9 5 - - ENE 1011,5 3,1 0,0
20.05.2019 06:00:00 8,7 8,7 - 9 5 - - NE 1011,4 0,8 0,2
20.05.2019 05:00:00 8,6 8,6 - 9 5 - - NE 1011,0 0,3 0,0
20.05.2019 04:00:00 8,3 8,2 - 4 2 - - E 1011,0 0,2 0,0
20.05.2019 03:00:00 8,2 8,2 - 13 7 - - E 1011,1 0,3 0,0
20.05.2019 02:00:00 8,9 8,7 - 13 7 - - E 1011,3 0,4 0,0
20.05.2019 01:00:00 9,5 9,3 - 8 4 - - E 1011,2 4,3 0,0
20.05.2019 00:00:00 9,3 9,0 - 8 4 - - E 1010,9 7 0,0
19.05.2019 23:00:00 9,4 9,0 - 5 3 - - ENE 1010,8 5 0,0
19.05.2019 22:00:00 9,4 8,8 - 8 4 - - E 1010,8 7 0,0
19.05.2019 21:00:00 9,7 8,7 - 5 3 - - ENE 1010,4 13 0,0
19.05.2019 20:00:00 10,9 9,4 - 13 7 - - ESE 1010,2 14 0,0
19.05.2019 19:00:00 11,2 9,4 - 15 8 - - ESE 1010,0 16 0,0
19.05.2019 18:00:00 12,2 10,0 - 21 11 - - ESE 1009,7 19 0,0
19.05.2019 17:00:00 12,0 9,5 - 16 9 - - E 1009,9 17 0,0
19.05.2019 16:00:00 12,0 8,9 - 15 8 - - ESE 1009,7 25 0,0
19.05.2019 15:00:00 12,4 9,3 - 15 8 - - SE 1009,7 20 0,0
19.05.2019 14:00:00 11,8 9,3 - 18 10 - - ESE 1009,5 14 0,0
19.05.2019 13:00:00 12,4 9,6 - 13 7 - - ESE 1009,2 28 0,0
19.05.2019 12:00:00 12,0 8,8 - 11 6 - - SE 1009,2 17 0,0
19.05.2019 11:00:00 11,9 9,8 - 9 5 - - ESE 1009,0 40 0,0
19.05.2019 10:00:00 10,4 10,0 11,0 9 5 - - SE 1009,0 8 0,0
19.05.2019 09:00:00 9,7 9,7 - 9 5 - - ESE 1009,0 15 0,0
19.05.2019 08:00:00 9,5 9,5 - 11 6 - - E 1008,8 3,6 0,0
19.05.2019 07:00:00 9,4 9,4 - 11 6 - - E 1008,6 1,8 0,0
19.05.2019 06:00:00 9,2 9,2 - 9 5 - - E 1008,6 4,0 0,0
19.05.2019 05:00:00 9,3 9,3 - 9 5 - - E 1008,7 1,8 0,2
19.05.2019 04:00:00 9,4 9,4 - 11 6 - - E 1008,6 1,1 0,0
19.05.2019 03:00:00 9,4 9,4 - 11 6 - - E 1008,8 2,3 0,0
19.05.2019 02:00:00 9,2 9,2 - 11 6 - - E 1008,9 5 0,0
19.05.2019 01:00:00 9,3 9,3 - 13 7 - - ESE 1009,0 2,4 0,0
19.05.2019 00:00:00 9,4 9,4 - 15 8 - - ESE 1009,1 1,5 0,0
18.05.2019 23:00:00 9,5 9,5 - 11 6 - - ESE 1009,3 2,5 0,0
18.05.2019 22:00:00 9,6 9,6 - 11 6 - - ESE 1009,4 2,5 0,0
18.05.2019 21:00:00 9,7 9,7 - 16 9 - - ENE 1009,2 0,4 0,0
18.05.2019 20:00:00 9,7 9,7 - 18 10 - - ENE 1009,2 6 0,0
18.05.2019 19:00:00 9,7 9,6 - 18 10 - - NE 1009,3 3,2 0,0
18.05.2019 18:00:00 10,0 9,8 - 16 9 - - NE 1009,5 4,5 0,0
18.05.2019 17:00:00 10,0 9,9 - 16 9 - - NE 1009,8 5 0,0
18.05.2019 16:00:00 10,2 10,1 - 18 10 - - NE 1010,0 7 0,0
18.05.2019 15:00:00 10,2 10,0 - 18 10 - - NE 1010,4 8 0,0
18.05.2019 14:00:00 10,5 10,2 - 16 9 - - NNE 1010,5 5 0,0
18.05.2019 13:00:00 10,2 9,9 - 15 8 - - NNE 1010,9 6 0,4
18.05.2019 12:00:00 10,0 9,4 - 13 7 - - NE 1011,4 7 0,4
18.05.2019 11:00:00 9,6 9,0 - 9 5 - - N 1011,6 8 0,2
18.05.2019 10:00:00 9,8 9,3 11,4 11 6 - - NNW 1011,7 13 0,0
18.05.2019 09:00:00 9,2 8,7 - 15 8 - - N 1012,4 12 0,0
18.05.2019 08:00:00 8,9 8,6 - 8 4 - - NNW 1012,2 15 0,0
18.05.2019 07:00:00 8,5 8,4 - 8 4 - - N 1012,7 5 0,0
18.05.2019 06:00:00 8,2 8,2 - 13 7 - - NNE 1013,2 5 0,0
18.05.2019 05:00:00 8,0 8,0 - 11 6 - - N 1013,6 6 0,0
18.05.2019 04:00:00 7,8 7,7 - 16 9 - - N 1014,1 1,6 0,0
18.05.2019 03:00:00 7,4 7,3 - 11 6 - - N 1015,2 9 0,0
18.05.2019 02:00:00 7,4 7,3 - 13 7 - - NNE 1015,9 0,6 0,0
18.05.2019 01:00:00 8,3 8,0 - 11 6 - - N 1016,4 0,4 0,0
18.05.2019 00:00:00 9,1 8,7 - 9 5 - - N 1016,9 8 0,0
17.05.2019 23:00:00 8,5 7,8 - 9 5 - - N 1017,2 12 0,0
17.05.2019 22:00:00 8,8 7,3 - 11 6 - - NE 1017,5 23 0,0
17.05.2019 21:00:00 10,0 8,0 - 13 7 - - NE 1017,6 25 0,0
17.05.2019 20:00:00 11,1 7,9 - 16 9 - - NE 1017,6 30 0,0
17.05.2019 19:00:00 12,8 6,7 - 15 8 - - NE 1017,8 30 0,0
17.05.2019 18:00:00 12,5 8,1 - 21 11 - - ENE 1018,1 20 0,0
17.05.2019 17:00:00 12,6 8,5 - 24 13 - - ENE 1018,7 19 0,0
17.05.2019 16:00:00 13,4 8,0 - 18 10 - - ENE 1019,0 26 0,0
17.05.2019 15:00:00 12,1 8,4 - 22 12 - - ENE 1019,6 45 0,0
17.05.2019 14:00:00 12,3 8,3 - 22 12 - - NE 1019,8 45 0,0
17.05.2019 13:00:00 13,4 7,6 - 22 12 - - NE 1020,3 26 0,0
17.05.2019 12:00:00 12,3 7,0 - 16 9 - - NE 1020,6 22 0,0
17.05.2019 11:00:00 11,8 7,7 - 16 9 - - ENE 1020,9 30 0,0
17.05.2019 10:00:00 12,5 7,9 10,9 8 4 - - E 1021,1 25 0,0
17.05.2019 09:00:00 10,9 8,1 - 9 5 - - E 1021,5 26 0,0
17.05.2019 08:00:00 9,7 8,2 - 9 5 - - E 1021,5 19 0,0
17.05.2019 07:00:00 10,0 8,4 - 11 6 - - ESE 1021,6 16 0,0
17.05.2019 06:00:00 9,2 8,2 - 9 5 - - SE 1021,6 13 0,0
17.05.2019 05:00:00 8,6 7,8 - 9 5 - - SE 1021,9 21 0,0
17.05.2019 04:00:00 8,4 7,6 - 15 8 - - ESE 1021,9 12 0,0
17.05.2019 03:00:00 8,6 7,2 - 18 10 - - ESE 1021,9 30 0,0
17.05.2019 02:00:00 8,6 6,9 - 13 7 - - SE 1022,0 18 0,0
17.05.2019 01:00:00 8,9 6,6 - 21 11 - - SE 1022,0 17 0,0
17.05.2019 00:00:00 9,2 7,0 - 22 12 - - SE 1022,0 20 0,0
16.05.2019 23:00:00 9,2 7,4 - 26 14 - - SE 1021,9 19 0,0
16.05.2019 22:00:00 9,3 7,3 - 21 11 - - SE 1022,1 20 0,0
16.05.2019 21:00:00 9,7 7,3 - 21 11 - - SE 1022,1 22 0,0
16.05.2019 20:00:00 10,2 7,7 - 24 13 - - ESE 1021,9 19 0,0
16.05.2019 19:00:00 10,6 8,0 - 28 15 50 27 ESE 1021,6 23 0,0
16.05.2019 18:00:00 11,3 8,4 - 35 19 50 27 ESE 1021,5 13 0,0
16.05.2019 17:00:00 12,0 8,3 - 29 16 48 26 ESE 1021,4 29 0,0
16.05.2019 16:00:00 12,2 8,3 - 34 18 48 26 ESE 1021,8 22 0,0
16.05.2019 15:00:00 12,1 8,4 - 31 17 48 26 ESE 1022,4 22 0,0
16.05.2019 14:00:00 12,0 8,2 - 34 18 48 26 ESE 1022,9 17 0,0
16.05.2019 13:00:00 12,1 8,7 - 34 18 48 26 ESE 1023,1 13 0,0
16.05.2019 12:00:00 11,4 8,7 - 29 16 46 25 ESE 1023,4 14 0,0
16.05.2019 11:00:00 11,3 8,8 - 31 17 - - ESE 1023,6 20 0,0
16.05.2019 10:00:00 10,9 8,3 10,7 31 17 46 25 ESE 1023,6 29 0,0
16.05.2019 09:00:00 9,8 7,6 - 29 16 48 26 ESE 1023,8 15 0,0
16.05.2019 08:00:00 9,0 7,5 - 35 19 50 27 ESE 1024,0 12 0,0
16.05.2019 07:00:00 8,7 7,6 - 31 17 46 25 ESE 1024,2 12 0,0
16.05.2019 06:00:00 8,0 7,3 - 29 16 - - ESE 1024,2 8 0,0
16.05.2019 05:00:00 8,2 7,9 - 24 13 - - ESE 1024,3 3,7 0,0
16.05.2019 04:00:00 7,8 7,6 - 26 14 - - ESE 1024,8 4,5 0,0
16.05.2019 03:00:00 7,9 7,6 - 26 14 - - SE 1025,1 6 0,0
16.05.2019 02:00:00 7,8 7,2 - 24 13 - - ESE 1025,5 5 0,0
16.05.2019 01:00:00 8,0 7,6 - 22 12 - - ESE 1025,7 3,6 0,0
16.05.2019 00:00:00 8,3 7,8 - 24 13 - - ESE 1026,0 6 0,0
15.05.2019 23:00:00 9,6 7,7 - 22 12 - - ESE 1025,9 17 0,0
15.05.2019 22:00:00 10,0 7,4 - 22 12 - - ESE 1026,1 19 0,0
15.05.2019 21:00:00 10,4 7,5 - 18 10 - - ESE 1026,1 20 0,0
15.05.2019 20:00:00 11,2 7,9 - 18 10 - - ESE 1026,1 18 0,0
15.05.2019 19:00:00 11,7 8,7 - 24 13 - - ESE 1026,2 14 0,0
15.05.2019 18:00:00 12,3 8,2 - 26 14 - - ESE 1026,1 14 0,0
15.05.2019 17:00:00 12,7 8,6 - 22 12 - - ESE 1026,3 22 0,0
15.05.2019 16:00:00 13,2 9,2 - 21 11 - - ESE 1026,7 17 0,0
15.05.2019 15:00:00 12,6 9,2 - 24 13 - - ESE 1026,9 21 0,0
15.05.2019 14:00:00 12,4 9,7 - 24 13 - - ESE 1027,2 16 0,0
15.05.2019 13:00:00 13,5 10,4 - 22 12 - - ESE 1027,3 30 0,0
15.05.2019 12:00:00 11,8 9,4 - 18 10 - - ESE 1027,3 16 0,0

tt = temperature
td = dewpoint
tt -20cm = temperature -20cm
ff = wind speed
fx = gusts
dd = wind direction
ppp = reduced air pressure
vv = visibility
rr = precipitation

Next stations